Regional Weather Roundup
Issued by NWS Charleston, SC

Current Version | Previous Version | Text Only | Print | Product List | Glossary Off
Versions: 1 2 3 4 5 6 7 8 9 10 11 12 13 14 15 16 17 18 19 20 21 22 23 24 25 26 27 28 29 30 31 32 33 34 35 36 37 38 39 40 41 42 43 44 45 46 47 48 49 50
000 ASUS42 KCHS 170812 RWRCHS Regional Weather Roundup National Weather Service Charleston SC 300 AM EST SUN NOV 17 2019 NOTE: "fair" indicates few or no clouds below 12,000 feet with no significant weather and/or obstructions to visibility. Not all stations are quality controlled. Use data with caution, especially dewpoint observations. SCZ027-030-031-034>040-042>050-170900- ...Southeast South Carolina... CITY SKY/WX TMP DP RH WIND PRES REMARKS N Charleston CLOUDY 45 40 82 N17G28 29.92S Waterfront Prk N/A 47 44 90 N15G24 29.77R Mount Pleasant CLOUDY 46 43 87 N14G25 29.90F Johns Island CLOUDY 46 43 87 N18G25 29.90F Pinopolis N/A 45 43 93 N21 29.89R Moncks Corner CLOUDY 43 39 87 N17G28 29.95S Summerville CLOUDY 45 41 87 N13G24 29.94F Beaufort MCAS CLOUDY 47 42 83 N17G26 29.94F Beaufort Arpt CLOUDY 45 41 87 N17G29 29.93F Hilton Head Is CLOUDY 46 41 81 N22G36 29.93S Walterboro PTSUNNY 43 37 81 N9G16 29.97S Allendale CLOUDY 46 39 76 N10G17 29.97F ...Southern Midlands and Pee Dee... CITY SKY/WX TMP DP RH WIND PRES REMARKS Georgetown CLOUDY 45 41 87 N18G26 29.91S Kingstree CLOUDY 43 37 81 NW10G18 29.98S Orangeburg CLOUDY 46 35 65 N15G24 29.99F Barnwell CLOUDY 45 37 76 N12G18 30.00S Aiken CLOUDY 43 32 65 N12 30.05R Manning CLOUDY 43 36 75 N17G26 29.98F Columbia FAIR 44 34 67 N8 30.04R Sumter FAIR 44 34 67 N18 30.01S Florence CLOUDY 43 36 76 N17G24 30.00R Myrtle Beach CLOUDY 47 42 83 N21G33 29.88S N Myrtle Beach CLOUDY 48 43 82 N21G33 29.85F $$ GAZ063-065-086>088-099>101-113>116-118-119-134>141-150-170900- ...Southeast Georgia... CITY SKY/WX TMP DP RH WIND PRES REMARKS Savannah Arpt CLOUDY 47 42 83 N13 29.96R Hunter AAF CLOUDY 47 41 79 N13G20 29.93 Fort Stewart CLOUDY 47 42 81 N8 29.94F Statesboro CLOUDY 45 41 85 N7 29.98S Sylvania CLOUDY 47 40 77 N6 29.99S Claxton CLOUDY 48 43 81 N8 29.98F Millen CLOUDY 46 38 73 N10 29.99S Metter CLOUDY 47 40 77 N9 29.99S Reidsville NOT AVBL ...CSRA, Central and far Southeast Georgia... CITY SKY/WX TMP DP RH WIND PRES REMARKS Thomson FAIR 44 32 63 E8 30.03F Augusta-Bush CLOUDY 48 34 58 N12 30.01F Augusta-Daniel FAIR 46 32 58 N9 30.02F Swainsboro CLOUDY 46 37 71 N5 30.01S Vidalia CLOUDY 46 37 71 N5 29.99F Eastman CLOUDY 46 38 73 N3 30.04S Hazlehurst CLOUDY 48 41 76 N5 29.98F Alma FAIR 47 41 80 N6 29.97F Waycross CLOUDY 49 40 69 NE10G16 29.97F Jesup CLOUDY 50 43 76 N6 29.97S Baxley CLOUDY 45 39 81 N8 29.97F Brunswick CLOUDY 47 44 87 N10 29.94S Saint Simons CLOUDY 49 42 77 N12 29.93S $$ SCZ027-028-034-036>038-045-046-048>050-GAZ119-141-170900- ...Lake and Supplemental Coastal Observations... STATION/POSITION TIME TEMP WIND PRES WAVE SWELL AIR SEA DIR/SP/G HT/PER HT/PER/DIR (UTC) (F) (DEG/KT/KT) (MB) (FT/S) (FT/S/D) Winyah Bay 0645 46 360/ 13 1011.0 Lake Murray 0720 45 360/ 5/ 10 N/A Chrlstn Harbor 0724 47 58 350/ 12/ 24 1012.9 ACE Basin NERRS 0645 46 350/ 5 1014.0 Fort Pulaski 0724 48 57 10/ 14/ 18 1013.8F Sapelo Island 0700 49 360/ 17 1013.0 $$ ANZ835-935-AMZ111-154-330-350-352-354-370-450-454-472-170900- ...C-MAN and Buoy Observations... STATION/POSITION TIME TEMP WIND PRES WAVE SWELL AIR SEA DIR/SP/G HT/PER HT/PER/DIR (UTC) (F) (DEG/KT/KT) (MB) (FT/S) (FT/S/D) Buoy 41004 0750 74 350/ 33/ 43 1008.9R 13/ 8 Buoy 41008 0750 53 66 10/ 23/ 29 1012.2R 7/ 6 3/ 70/ 8 Folly Beach CMAN 0700 47 340/ 21/ 28 1013.0R Capers Nearshore NOT AVBL Fripp Nearshore 0708 48 20/ 23/ 31 1014.1F STATION/POSITION TIME TEMP WIND PRES WAVE SWELL AIR SEA DIR/SP/G HT/PER HT/PER/DIR (UTC) (F) (DEG/KT/KT) (MB) (FT/S) (FT/S/D) 5E St. Marys GA 0730 66 N/A 7/ 6 2/ 80/12 Frying Pan Buoy 0750 60 72 10/ 39/ 47 1005.7F 15/ 8 5/ 90/11 Buoy 41025 0750 64 78 20/ 33/ 41 1007.4F 24/14 16/ 80/14 Cape Lookout NC 0700 54 10/ 30/ 38 1009.8F Buoy 41002 0750 140/ 14/ 21 999.5F Buoy 41010 0750 71 310/ 25/ 31 1006.4F 18/13 16/13 St Augustine FL 0800 50 65 320/ 12/ 16 1012.4F $$

USA.gov is the U.S. government's official web portal to all federal, state and local government web resources and services.